haerbin , China , ASIA

  • Monday
    May 27

    Light rain  Cloudy

    59 °F  48 °F

    Northwest  Northwest

    4~5L   5~6L 

  • Tuesday
    May 28

    Shower  Cloudy

    63 °F  54 °F

    Northwest  Northwest

    5~6L   4~5L 

  • Wednesday
    May 29

    Cloudy  Cloudy

    73 °F  52 °F

    West  West

    4~5L    

  • Thursday
    May 30

    Thundershower  Thundershower

    64 °F  48 °F

    Northwest  Northwest

    3~4L    

  • Friday
    May 31

    Cloudy  Cloudy

    70 °F  48 °F

    West  Southwest

    3~4L    

  • Saturday
    June 1

    Sunny  Cloudy

    70 °F  55 °F

    Southwest  South

    3~4L   3~4L 

  • Sunday
    June 2

    Cloudy  Thundershower

    82 °F  63 °F

    South  South

    4~5L   4~5L 

Date   Weather Temperature Humidity Total_rain Visibility Wind
11:00 Light rain 56°F 83.7% 2.1mm 999.9km Northwest  5.8m/s
14:00 Light rain 56°F 80% 1mm 999.9km Northwest  5.5m/s
17:00 Light rain 56°F 80% 0.4mm 999.9km Northwest  4.8m/s
20:00 Light rain 52°F 85.1% 0.1mm 999.9km Northwest  1.8m/s
23:00 Cloudy 49°F 88.2% 0mm 999.9km Northwest  3.4m/s
02:00 Cloudy 50°F 84.4% 0mm 999.9km Northwest  3.8m/s
05:00 Cloudy 51°F 81.7% 0mm 999.9km Northwest  4.8m/s
08:00 Cloudy 59°F 75.8% 0mm 999.9km Northwest  6.8m/s
11:00 Shower 60°F 51.4% 0.4mm 999.9km Northwest  6.8m/s
14:00 Shower 62°F 58.6% 0.1mm 999.9km Northwest  6.1m/s
17:00 Overcast 60°F 62.8% 0mm 999.9km Northwest  5.6m/s
20:00 Shower 56°F 74.1% 0.5mm 999.9km Northwest  3.9m/s
23:00 Cloudy 55°F 85.3% 0mm 999.9km Northwest  4.7m/s
02:00 Cloudy 54°F 82.3% 0mm 999.9km Northwest  4.5m/s
05:00 Cloudy 54°F 76.3% 0mm 999.9km Northwest  3.9m/s
08:00 Cloudy 58°F 70.9% 0mm 999.9km Northwest  5.1m/s
11:00 Cloudy 71°F 55.1% 0mm 999.9km Northwest  5.8m/s
14:00 Cloudy 73°F 62.5% 0mm 999.9km Northwest  2.9m/s
17:00 Cloudy 70°F 64.7% 0mm 999.9km Northwest  3.2m/s
20:00 Cloudy 59°F 75.4% 0mm 999.9km Northwest  1.9m/s
23:00 Cloudy 54°F 80.2% 0mm 999.9km Northwest  1.7m/s
02:00 Cloudy 53°F 89.1% 0mm 999.9km Northwest  3.0m/s
05:00 Cloudy 52°F 89.6% 0mm 999.9km Northwest  2.0m/s
08:00 Cloudy 60°F 73.8% 0mm 999.9km Northwest  2.2m/s
11:00 Thundershower 56°F 64.4% 0.2mm 999.9km Northwest  3.1m/s
14:00 Overcast 62°F 66.9% 0mm 999.9km Northwest  4.6m/s
17:00 Thundershower 59°F 67.7% 0.2mm 999.9km Northwest  3.7m/s
20:00 Thundershower 51°F 75.3% 0.1mm 999.9km Northwest  1.1m/s
23:00 Thundershower 51°F 83.5% 0.1mm 999.9km Northwest  1.2m/s
02:00 Thundershower 50°F 88.1% 0.4mm 999.9km Northwest  1.9m/s
05:00 Thundershower 49°F 87.5% 0.1mm 999.9km Northwest  2.4m/s
08:00 Cloudy 64°F 68.2% 0mm 999.9km Northwest  3.0m/s
11:00 Cloudy 67°F 59.8% 0mm 999.9km Northwest  4.1m/s
14:00 Cloudy 69°F 63.9% 0mm 999.9km Northwest  3.7m/s
17:00 Cloudy 69°F 68.1% 0mm 999.9km Northwest  3.2m/s
20:00 Cloudy 56°F 68.5% 0mm 999.9km Northwest  1.4m/s
23:00 Cloudy 53°F 68.9% 0mm 999.9km Southwest  1.0m/s
02:00 Cloudy 51°F 87.8% 0mm 999.9km Northwest  2.5m/s
05:00 Cloudy 49°F 75.3% 0mm 999.9km Southwest  3.1m/s
08:00 Cloudy 69°F 74.8% 0mm 999.9km Northwest  3.7m/s
11:00 Sunny 64°F 58.4% 0mm 999.9km Southwest  4.4m/s
14:00 Sunny 69°F 60.9% 0mm 999.9km Northwest  4.0m/s
17:00 Sunny 67°F 63% 0mm 999.9km Northwest  3.5m/s
20:00 Sunny 58°F 71.6% 0mm 999.9km Northwest  2.3m/s
23:00 Cloudy 58°F 73.4% 0mm 999.9km Northwest  1.8m/s
02:00 Cloudy 57°F 84.3% 0mm 999.9km Southwest  1.2m/s
05:00 Cloudy 56°F 74.4% 0mm 999.9km Northeast  1.8m/s
08:00 Cloudy 66°F 64.7% 0mm 999.9km Southeast  3.1m/s
11:00 Cloudy 78°F 51.2% 0mm 999.9km Southeast  3.2m/s
14:00 Cloudy 80°F 56.6% 0mm 999.9km Northeast  3.7m/s
17:00 Cloudy 82°F 60% 0mm 999.9km Northeast  2.9m/s
20:00 Cloudy 70°F 78.2% 0mm 999.9km Southeast  0.6m/s
23:00 Cloudy 65°F 78.4% 0mm 999.9km Southeast  2.1m/s
02:00 Cloudy 64°F 84.5% 0mm 999.9km Southeast  2.5m/s
05:00 Overcast 63°F 85.1% 0mm 999.9km Southeast  2.8m/s